Location: Lanoux
(43.1180°N, 1.4255°E)
Time: 16:03:07
(UTC+00:00)

SL-16 R/B - Pass Details

Date: 21 March 2026
Orbit: 985 x 1006 km, 99.8° (Epoch: 15 April)

Event Time Altitude Azimuth Distance (km) Brightness Sun altitude
Rises 03:05:21 0° 146° (SSE) 3,690 5.5 -30.3°
Reaches altitude 10° 03:07:51 10° 142° (SE) 2,748 4.9 -30.0°
Maximum altitude 03:13:48 52° 68° (ENE) 1,228 3.3 -29.0°
Drops below altitude 10° 03:19:48 10° 354° (N) 2,778 5.1 -28.1°
Sets 03:22:21 0° 350° (N) 3,734 5.8 -27.7°
